Tracking 18844 objects as of 21-Nov-2017
HD Live streaming from Space Station
objects crossing your sky now

FENGYUN 1C DEB

Track FENGYUN 1C DEB now!
10-day predictions


NORAD ID: 36724
Int'l Code: 1999-025EAW
Perigee: 784.2 km
Apogee: 973.8 km
Inclination: 99.5 °
Period: 102.4 minutes
Semi major axis: 7249 km
RCS: 0.0016 m2 (small)
Launch date: May 10, 1999
Source: People's Republic of China (PRC)
Launch site: Taiyaun Space Center, China (TSC)

Note: This is SATELLITE DEBRIS
aabbcc
Your satellite tracking list
Your tracking list is empty




NASA's NSSDC Master Catalog

Two Line Element Set (TLE):
1 36724U 99025EAW 17324.76551192  .00001280  00000-0  74465-3 0  9990
2 36724  99.4996 154.8681 0130802  85.7745 338.3116 14.06360757468364
Source of the keplerian elements: AFSPC